Vertical_Velocity
-2 -3 -3 1 -1 -6 -0 1 0 6 -3 7 -0 1 -2 1 -2 4 1 5 3 -5 -1 1 3 -9 -13 -3 -9 -3 -3 -3 -1 -14 2 1 -0 -4 -5 -1 1 0 -0 -3
-5 -1 -4 -3 -1 -2 3 3 -2 0 6 1 -0 -3 -4 2 3 -2 2 -1 3 -1 -4 4 -0 -0 -7 0 -1 -14 -5 2 1 8 4 4 1 0 -2 0 -0 -4 -1 -4
1 -1 -0 -1 -1 -5 2 3 0 -1 5 1 3 1 -7 -2 -2 -2 1 -4 10 3 6 2 -5 2 -1 1 -2 6 1 0 -7 -15 -17 -8 3 2 0 -1 4 -6 -8 -1
3 -2 5 0 -3 -3 -3 -1 1 0 -2 -6 0 5 4 0 -2 -2 3 -1 3 -2 2 3 0 1 3 3 -1 1 1 -1 4 -3 -0 1 -3 -3 0 1 -12 3 -17 -1
10 -0 7 7 -2 -4 -5 3 3 -1 -3 -0 4 -3 -2 0 -5 5 -2 8 -3 2 -2 -9 -4 -5 -2 -9 5 1 1 -1 0 0 1 0 1 0 0 -0 -1 3 2 -1
-3 0 7 7 5 -1 -0 -7 8 5 -6 -1 6 -2 -2 -4 5 -11 -5 -0 2 5 -14 -1 -2 -5 -3 -5 -7 -1 -3 -3 -0 -3 -0 -0 1 -11 -3 -3 -0 -5 0 -9
-3 -3 -2 -1 6 6 10 9 8 7 -8 5 2 1 6 -0 -4 0 -4 4 8 -4 2 -2 -5 -6 -2 -2 1 -1 -1 -1 -1 1 1 4 -16 0 -2 -5 -3 0 1 1
1 -1 -1 -4 -0 6 -1 3 5 4 -2 5 -5 -2 3 -2 -4 3 -1 1 -4 8 1 -3 -1 -1 -1 0 1 1 -2 -2 -1 -3 -1 -2 4 -1 -4 -8 -10 -4 -3 2
-4 1 -1 -2 -2 2 -0 2 4 7 8 -2 6 2 3 2 -0 1 1 -3 9 1 0 -1 -1 -2 -4 4 2 -0 -0 -1 -6 3 0 -4 -12 1 -0 -0 -5 -2 -5 -0
-1 -2 1 -2 -2 -4 15 -4 6 2 6 -3 5 1 4 2 -0 2 1 2 -1 1 -0 -1 -1 1 -3 -3 -2 -0 2 3 -2 0 -0 -4 1 0 -0 6 -12 -0 -2 -4
-2 -2 -0 0 -1 -4 14 -3 -0 16 3 -9 5 3 1 -6 1 3 -4 3 -1 0 -1 -2 -1 -0 -0 -1 -3 -4 -7 -5 -1 1 2 -5 -2 2 3 1 1 -1 -0 1
2 -3 -0 2 0 -4 5 3 -1 5 13 -2 1 1 9 6 9 5 -1 2 0 2 -2 1 0 0 2 -2 -0 1 2 -2 -8 -0 -4 2 1 2 1 1 -3 2 -2 4
-3 2 -4 3 3 0 6 5 -8 -4 3 -5 0 -1 -2 11 9 11 5 -1 0 0 2 -1 0 -1 -0 -1 1 -2 1 0 -2 4 0 1 1 1 1 0 -1 1 3 -7
-2 -0 -3 1 3 3 4 1 -3 -4 3 4 -2 0 -8 6 4 6 12 3 0 1 -1 -1 -1 -2 2 1 1 -2 3 1 -1 3 3 1 0 2 3 3 2 -3 5 0
3 2 -1 -4 1 3 2 2 1 2 3 3 -4 1 -1 -0 2 -1 -0 2 1 -1 -2 -2 1 0 -1 1 -1 -0 2 2 2 3 -2 -1 3 4 8 -0 3 2 -4 4
4 -1 1 -6 -2 2 1 1 2 4 0 5 0 -1 -3 -4 -2 -1 -3 -1 -3 -1 -1 1 1 1 1 -2 -0 3 1 1 -1 4 1 -2 2 2 7 -8 -0 5 -5 6
3 -3 3 -5 -1 -1 -0 2 -2 -1 1 2 -2 -2 -4 -3 -5 -3 -4 -3 -2 -0 1 -1 0 -1 -3 -1 -0 2 1 3 7 8 -3 -2 10 2 8 -4 -0 5 1 1
-0 -2 1 -1 -2 -3 1 -1 1 3 -1 -1 -1 -3 -0 -9 -2 -3 -3 -2 0 -4 2 -1 -1 -2 -2 -2 3 0 2 6 1 2 2 -3 1 2 1 4 6 -2 -0 1
-2 -1 -1 -1 -8 -6 -0 3 -1 3 -3 -2 -2 4 -0 -8 -0 1 -2 0 -1 0 -0 -0 -2 0 1 5 2 2 2 3 2 6 2 6 -2 2 1 6 5 -6 -0 3
-10 -10 -7 -4 -0 3 -1 1 -3 -6 -3 -7 -1 1 -1 5 -0 -3 -1 -1 1 -0 5 -1 -3 3 1 2 4 4 3 5 10 -5 2 2 -2 -0 3 -1 -2 -2 0 -1
-18 -11 -5 -0 0 -1 -5 -5 -7 -3 -5 -3 -0 4 4 1 3 1 1 0 1 -1 3 2 1 1 1 2 2 4 2 3 1 -1 0 1 -1 -4 -2 -0 -1 1 0 -0
1 -2 -3 -0 -7 -6 -9 -0 -6 -4 3 -6 1 -2 1 -5 2 3 -2 1 -0 1 1 -1 0 4 1 2 4 3 3 4 -2 2 -2 2 -2 1 0 -0 0 0 -0 0
-2 -3 -5 -7 -1 -16 -5 -1 -5 -4 -2 1 -4 -7 1 -2 3 1 1 -1 1 1 -2 2 3 3 2 2 3 2 5 3 2 -1 -1 0 -2 1 4 -0 -1 -1 -2 -1
-8 -5 -8 -4 -3 -0 -0 0 1 -5 -2 -1 -0 -0 4 -0 -0 1 2 2 2 -1 -1 3 2 1 1 2 2 1 1 1 0 -0 0 -0 2 1 2 1 -0 -0 -1 -1
-5 -5 -2 -2 -1 -1 -0 -0 -2 1 -1 1 -2 -0 5 -1 1 0 -0 -3 -0 2 3 2 1 2 2 2 3 1 1 0 -0 0 2 2 2 1 0 -0 -1 -2 -2 -2
-2 -2 -2 -1 1 -1 -0 -1 -2 1 1 1 2 0 1 0 2 -1 1 1 2 2 1 2 2 2 2 1 1 -1 -1 1 1 0 -1 -2 -2 -2 -2 -2 -2 -1 -0 0
-2 -1 -2 -2 -1 -0 -0 0 -1 1 -0 0 1 1 5 -0 -1 -1 1 2 3 2 3 3 3 1 1 0 0 -0 -1 -2 -1 0 1 -0 -1 -1 -1 0 -0 -1 -0 -0
Height
1473 1467 1462 1456 1451 1446 1442 1438 1436 1431 1429 1429 1424 1420 1416 1413 1407 1409 1411 1409 1400 1378 1386 1394 1397 1390 1393 1408 1415 1426 1430 1439 1451 1450 1461 1461 1450 1448 1448 1454 1475 1474 1468 1452
1471 1466 1461 1455 1450 1447 1443 1439 1434 1429 1430 1427 1422 1419 1412 1412 1407 1406 1406 1405 1392 1379 1382 1393 1393 1390 1398 1402 1404 1411 1422 1430 1451 1462 1461 1461 1455 1454 1446 1451 1456 1460 1462 1446
1471 1465 1459 1454 1449 1445 1441 1439 1434 1429 1427 1427 1423 1416 1405 1404 1400 1397 1397 1393 1389 1383 1378 1379 1389 1394 1402 1403 1402 1403 1406 1412 1413 1418 1415 1432 1449 1448 1451 1447 1451 1437 1444 1438
1470 1464 1458 1452 1447 1444 1441 1439 1435 1434 1426 1419 1416 1416 1413 1407 1403 1393 1389 1384 1386 1381 1380 1381 1385 1396 1403 1405 1406 1406 1406 1408 1409 1405 1417 1425 1427 1434 1443 1445 1432 1440 1430 1443
1471 1464 1458 1453 1447 1442 1440 1440 1437 1433 1425 1420 1416 1409 1402 1401 1396 1399 1384 1382 1378 1382 1382 1378 1386 1386 1390 1392 1406 1403 1408 1417 1414 1422 1425 1424 1427 1428 1431 1427 1425 1428 1433 1440
1471 1465 1460 1454 1448 1443 1441 1440 1435 1432 1423 1416 1413 1406 1399 1397 1397 1383 1378 1375 1379 1379 1372 1377 1377 1378 1382 1384 1390 1397 1409 1417 1421 1418 1427 1432 1433 1421 1421 1423 1422 1423 1433 1437
1471 1465 1460 1454 1450 1446 1443 1439 1435 1429 1417 1414 1408 1403 1397 1389 1382 1382 1372 1373 1372 1369 1369 1375 1381 1384 1387 1391 1395 1396 1405 1409 1420 1429 1432 1431 1406 1421 1418 1416 1420 1424 1427 1433
1470 1464 1458 1454 1449 1445 1440 1435 1432 1427 1416 1411 1400 1398 1389 1380 1370 1371 1367 1364 1366 1366 1368 1378 1387 1392 1393 1401 1403 1399 1399 1411 1426 1421 1416 1413 1414 1422 1419 1417 1415 1418 1421 1432
1469 1463 1456 1451 1446 1442 1437 1433 1429 1426 1418 1404 1402 1394 1388 1379 1369 1360 1359 1363 1364 1367 1365 1374 1376 1379 1378 1398 1403 1403 1402 1406 1408 1427 1407 1410 1389 1407 1412 1412 1409 1410 1418 1429
1466 1460 1454 1449 1443 1439 1434 1430 1427 1422 1415 1404 1400 1395 1389 1383 1376 1367 1361 1362 1367 1366 1363 1368 1373 1374 1379 1385 1386 1398 1401 1404 1400 1403 1400 1402 1406 1410 1412 1411 1399 1404 1410 1418
1463 1457 1451 1445 1439 1436 1432 1427 1423 1420 1411 1403 1399 1394 1391 1386 1383 1378 1367 1363 1363 1365 1362 1363 1369 1369 1375 1376 1383 1379 1384 1394 1398 1403 1402 1398 1405 1411 1407 1406 1407 1408 1415 1422
1461 1453 1447 1441 1436 1432 1430 1423 1419 1415 1409 1402 1398 1394 1391 1387 1383 1381 1371 1367 1364 1362 1365 1371 1375 1377 1381 1370 1376 1390 1384 1382 1386 1392 1387 1405 1406 1407 1406 1406 1407 1414 1416 1422
1457 1449 1442 1437 1432 1429 1427 1422 1417 1412 1407 1400 1397 1395 1390 1385 1380 1378 1377 1368 1366 1364 1366 1364 1369 1370 1377 1372 1378 1384 1394 1396 1393 1401 1410 1409 1408 1408 1407 1409 1412 1417 1420 1426
1453 1445 1438 1433 1429 1425 1423 1421 1418 1415 1411 1405 1397 1394 1392 1388 1383 1378 1374 1372 1369 1367 1367 1368 1372 1375 1383 1383 1384 1385 1402 1400 1397 1408 1412 1411 1413 1412 1412 1414 1416 1421 1429 1432
1449 1440 1434 1430 1426 1423 1420 1419 1417 1415 1416 1409 1399 1395 1394 1390 1385 1380 1376 1373 1370 1369 1370 1374 1380 1383 1384 1389 1391 1403 1410 1407 1397 1391 1402 1402 1413 1417 1418 1417 1421 1426 1431 1437
1445 1436 1431 1427 1425 1421 1419 1419 1417 1415 1412 1409 1403 1400 1396 1391 1389 1386 1382 1379 1375 1375 1377 1382 1384 1386 1387 1391 1401 1415 1413 1409 1409 1407 1406 1406 1413 1417 1421 1422 1427 1434 1438 1446
1441 1434 1428 1425 1424 1423 1422 1423 1420 1414 1411 1410 1405 1402 1400 1395 1390 1388 1386 1384 1383 1382 1383 1386 1389 1392 1390 1400 1406 1418 1415 1412 1410 1410 1408 1413 1417 1421 1425 1428 1435 1441 1445 1451
1439 1432 1428 1425 1425 1425 1424 1422 1418 1415 1412 1411 1413 1410 1406 1404 1400 1396 1392 1390 1388 1388 1391 1393 1395 1398 1403 1414 1422 1421 1418 1415 1413 1412 1411 1413 1419 1425 1430 1437 1442 1446 1451 1457
1438 1432 1429 1428 1427 1426 1426 1422 1421 1419 1419 1420 1427 1428 1418 1413 1409 1404 1400 1397 1394 1397 1397 1400 1400 1412 1422 1430 1428 1423 1421 1419 1420 1417 1419 1423 1426 1433 1440 1444 1449 1451 1458 1463
1438 1433 1432 1433 1433 1428 1427 1425 1425 1423 1426 1432 1440 1438 1431 1426 1416 1408 1406 1403 1404 1400 1408 1407 1412 1430 1436 1434 1431 1429 1427 1426 1426 1421 1427 1431 1437 1443 1447 1450 1454 1460 1463 1467
1440 1439 1438 1436 1431 1430 1430 1434 1438 1443 1445 1448 1449 1446 1442 1430 1425 1419 1416 1412 1410 1405 1410 1408 1418 1431 1440 1438 1435 1433 1433 1432 1431 1431 1434 1439 1444 1449 1454 1456 1460 1464 1468 1471
1449 1446 1443 1440 1438 1440 1446 1461 1459 1459 1463 1459 1455 1451 1446 1435 1429 1425 1420 1416 1414 1411 1418 1412 1428 1446 1445 1444 1442 1440 1440 1439 1438 1442 1445 1447 1452 1457 1459 1461 1464 1468 1471 1473
1453 1452 1452 1456 1461 1469 1480 1485 1476 1474 1469 1464 1461 1454 1446 1437 1433 1429 1427 1418 1418 1422 1420 1432 1446 1448 1449 1448 1448 1447 1446 1445 1446 1449 1452 1455 1459 1461 1463 1464 1467 1469 1472 1474
1458 1462 1473 1478 1484 1485 1486 1487 1485 1480 1473 1468 1464 1457 1450 1441 1437 1437 1428 1429 1428 1419 1422 1437 1448 1450 1451 1452 1452 1451 1451 1452 1454 1455 1458 1460 1462 1463 1464 1466 1468 1471 1472 1473
1466 1471 1487 1488 1486 1483 1483 1482 1480 1477 1472 1467 1461 1455 1450 1442 1439 1440 1436 1428 1437 1444 1442 1448 1451 1452 1452 1453 1454 1454 1455 1457 1458 1460 1462 1463 1464 1465 1467 1469 1471 1472 1473 1473
1475 1479 1485 1487 1485 1483 1481 1479 1477 1474 1468 1462 1462 1455 1445 1441 1443 1439 1449 1445 1448 1451 1453 1453 1453 1455 1456 1456 1457 1458 1460 1461 1462 1463 1465 1466 1467 1468 1470 1471 1472 1473 1473 1472
1480 1483 1484 1486 1486 1483 1481 1478 1476 1474 1469 1468 1466 1459 1452 1450 1444 1450 1456 1458 1460 1459 1458 1457 1458 1459 1460 1460 1461 1463 1464 1465 1466 1467 1467 1468 1469 1470 1471 1472 1472 1472 1471 1470